Content
SEND FEEDBACK

Daily
Averages
Monthly
Summary
French Polynesia

FAAA, FRENCH POLYNESIA


Home > Oceania > French Polynesia
Elevation: 7 feet     Latitude: 17 33S     Longitude: 149 37W

WEATHER
 
SELECT A DAY
Number of Records: 216,108;   Date Range: 6/30/96 - 11/25/14
 
SHARE

PRINT THIS DATA

[ ← Previous Day ]
WEATHER ALMANAC - APRIL 26, 2013
[ Next Day → ]
[ °C ]   °F
Weather ElementAverageHighLow
Temperature82.2 °F87.8 °F (11:30 am)77 °F (12:37 am)
Dewpoint72.7 °F77 °F (12:00 pm)69.8 °F (1:30 am)
Humidity72.1 %83 % (12:37 am)59 % (11:00 am)
Barometer29.89 in29.94 in (8:00 am)29.83 in (2:00 pm)
Wind Speed7.7 mph33.6 mph (2:00 pm)
Weather ElementAverage
Visibility7.5 mi
Wind DirectionENE (52.4 °)

Weather ElementTotal
Precipitation---
Cooling Degree Days17.4 (Base 65)
Growing Degree Days32.4 (Base 50)
Averaged from 51 records on April 26, 2013
WEATHER CONDITIONS BREAKOUT
WIND DIRECTION BREAKOUT
WEATHER BY HOUR - APRIL 26, 2013
[ °C ]   °F
Local TimeTemperatureDewpointHumidityBarometerVisibilityWind DirectionWind SpeedGust SpeedPrecipitationEventsConditions
12:37 AM77.0 °F71.6 °F83 %29.89 in6.2 miVariable3.5 mphPartly Cloudy
1:00 AM78.8 °F71.6 °F78 %29.89 in6.2 miENE (70°)4.6 mphPartly Cloudy
1:30 AM78.8 °F69.8 °F74 %29.89 in6.2 miENE (70°)6.9 mphPartly Cloudy
2:00 AM80.0 °F71.0 °F67 %29.88 in12.0 miENE (60°)8.1 mphScattered Clouds
2:00 AM78.8 °F71.6 °F78 %29.86 in6.2 miENE (60°)8.1 mphPartly Cloudy
2:30 AM80.6 °F71.6 °F74 %29.86 in6.2 miSSE (160°)5.8 mphPartly Cloudy
3:00 AM80.6 °F71.6 °F74 %29.86 in6.2 miVariable3.5 mphPartly Cloudy
3:30 AM78.8 °F69.8 °F74 %29.86 inSouth (190°)5.8 mph
4:00 AM78.8 °F71.6 °F78 %29.86 inCalm
4:30 AM77.0 °F71.6 °F83 %29.89 inVariable2.3 mph
5:00 AM77.0 °F71.0 °F75 %29.89 in12.0 miESE (110°)2.3 mphClear
5:00 AM77.0 °F69.8 °F78 %29.89 inVariable2.3 mph
6:00 AM77.0 °F69.8 °F78 %29.89 in6.2 miENE (70°)3.5 mphScattered Clouds
6:30 AM77.0 °F69.8 °F78 %29.92 in6.2 miESE (120°)2.3 mphMostly Cloudy
7:30 AM80.6 °F71.6 °F74 %29.92 in6.2 miVariable1.2 mphMostly Cloudy
8:00 AM82.0 °F72.0 °F66 %29.94 in16.0 miSouth (180°)2.3 mphPartly Cloudy
8:00 AM82.4 °F73.4 °F74 %29.92 in6.2 miVariable2.3 mphMostly Cloudy
8:30 AM84.2 °F71.6 °F66 %29.92 in6.2 miVariable2.3 mphMostly Cloudy
9:00 AM86.0 °F71.6 °F62 %29.92 in6.2 miVariable4.6 mphMostly Cloudy
9:30 AM86.0 °F71.6 °F62 %29.92 in6.2 miVariable4.6 mphMostly Cloudy
10:00 AM86.0 °F73.4 °F66 %29.92 in6.2 miVariable5.8 mphMostly Cloudy
10:30 AM86.0 °F73.4 °F66 %29.92 in6.2 miVariable4.6 mphMostly Cloudy
11:00 AM86.0 °F74.0 °F59 %29.91 in16.0 miENE (60°)29.1 mphScattered Clouds
11:00 AM86.0 °F73.4 °F66 %29.89 in6.2 miENE (60°)15.0 mphMostly Cloudy
11:30 AM87.8 °F75.2 °F66 %29.89 in6.2 miNE (50°)13.8 mphMostly Cloudy
12:00 PM87.8 °F77.0 °F70 %29.89 in6.2 miNE (40°)16.1 mphMostly Cloudy
12:30 PM86.0 °F75.2 °F70 %29.86 in6.2 miNE (40°)19.6 mphMostly Cloudy
1:11 PM86.0 °F77.0 °F74 %29.86 in6.2 miNE (40°)18.4 mphMostly Cloudy
2:00 PM85.0 °F75.0 °F66 %29.86 in16.0 miNE (50°)33.6 mphScattered Clouds
2:00 PM86.0 °F75.2 °F70 %29.83 in6.2 miNE (50°)17.3 mphMostly Cloudy
2:30 PM86.0 °F75.2 °F70 %29.83 in6.2 miNE (50°)19.6 mphMostly Cloudy
3:00 PM86.0 °F73.4 °F66 %29.83 in6.2 miNE (50°)16.1 mphMostly Cloudy
3:30 PM84.2 °F75.2 °F74 %29.83 in6.2 miENE (60°)13.8 mphMostly Cloudy
4:00 PM84.2 °F75.2 °F74 %29.86 in6.2 miENE (60°)13.8 mphMostly Cloudy
4:30 PM84.2 °F73.4 °F70 %29.86 in6.2 miENE (70°)9.2 mphMostly Cloudy
5:00 PM85.0 °F73.0 °F59 %29.87 in16.0 miENE (70°)4.5 mphScattered Clouds
5:00 PM84.2 °F73.4 °F70 %29.86 in6.2 miVariable2.3 mphMostly Cloudy
5:30 PM84.2 °F73.4 °F70 %29.86 in6.2 miEast (80°)8.1 mphMostly Cloudy
6:00 PM82.4 °F73.4 °F74 %29.86 in6.2 miENE (60°)8.1 mphMostly Cloudy
6:30 PM82.4 °F75.2 °F79 %29.86 in6.2 miENE (60°)15.0 mphMostly Cloudy
7:00 PM82.4 °F71.6 °F70 %29.89 in6.2 miEast (100°)6.9 mphMostly Cloudy
8:00 PM83.0 °F72.0 °F62 %29.92 in12.0 miEast (80°)2.3 mphScattered Clouds
8:00 PM82.4 °F71.6 °F70 %29.92 in6.2 miVariable2.3 mphScattered Clouds
8:30 PM82.4 °F71.6 °F70 %29.92 in6.2 miVariable2.3 mphScattered Clouds
9:00 PM80.6 °F73.4 °F79 %29.92 in6.2 miESE (110°)3.5 mphScattered Clouds
9:30 PM80.6 °F73.4 °F79 %29.92 in6.2 miEast (90°)3.5 mphScattered Clouds
10:00 PM80.6 °F73.4 °F79 %29.92 in6.2 miVariable2.3 mphScattered Clouds
10:30 PM80.6 °F71.6 °F74 %29.92 in6.2 miVariable3.5 mphMostly Cloudy
11:00 PM79.0 °F73.0 °F76 %29.94 in12.0 miSE (140°)2.3 mphScattered Clouds
11:00 PM78.8 °F73.4 °F83 %29.92 in6.2 miVariable2.3 mphMostly Cloudy
11:30 PM78.8 °F71.6 °F78 %29.92 in6.2 miESE (110°)3.5 mphScattered Clouds
Hourly data recorded from NTAA, located miles away from Faaa, French Polynesia







STORIES FROM OUR PARTNERS